Total_Precipitation_Accumulation
2.11 2.03 1.97 1.84 1.74 1.73 1.82 2.04 2.39 2.33 1.87 1.51 1.47 1.42 1.40 1.38 1.53 1.44 1.32 1.60 1.61 1.57 1.59 1.64 1.61 1.61 1.72 1.88 2.07 2.32 2.54 2.62 2.58 2.59 2.65 2.68 2.77 2.95
2.01 1.96 1.89 1.81 1.78 1.79 1.85 1.93 2.09 2.27 2.07 1.55 1.38 1.36 1.41 1.41 1.56 1.39 1.34 1.60 1.55 1.52 1.47 1.44 1.45 1.50 1.59 1.74 1.84 1.99 2.23 2.38 2.38 2.37 2.45 2.56 2.67 2.79
1.97 1.91 1.85 1.78 1.80 1.76 1.81 1.89 1.95 2.03 2.02 1.56 1.33 1.32 1.44 1.46 1.50 1.41 1.35 1.32 1.26 1.39 1.35 1.34 1.32 1.36 1.48 1.62 1.74 1.83 1.98 2.10 2.20 2.26 2.37 2.49 2.56 2.58
2.01 1.96 1.88 1.85 1.95 1.95 1.97 1.96 1.93 1.90 1.91 1.71 1.42 1.33 1.33 1.29 1.27 1.30 1.31 1.30 1.19 1.36 1.34 1.29 1.33 1.37 1.43 1.48 1.56 1.68 1.79 1.86 1.96 2.04 2.09 2.20 2.33 2.45
2.13 2.09 2.01 1.99 2.03 2.01 1.98 1.95 1.89 1.83 1.81 1.76 1.57 1.41 1.40 1.34 1.34 1.32 1.29 1.28 1.19 1.29 1.33 1.30 1.33 1.38 1.41 1.47 1.51 1.53 1.57 1.62 1.71 1.83 1.92 1.96 2.04 2.17
2.15 2.11 2.04 2.01 1.97 1.92 1.88 1.83 1.83 1.87 1.88 1.87 1.73 1.58 1.51 1.48 1.50 1.54 1.50 1.37 1.29 1.18 1.26 1.24 1.27 1.31 1.34 1.36 1.38 1.39 1.42 1.50 1.59 1.70 1.86 1.91 1.93 2.05
2.18 2.11 1.98 1.94 1.87 1.83 1.80 1.75 1.78 1.92 1.99 2.00 1.86 1.70 1.58 1.58 1.61 1.53 1.54 1.49 1.42 1.29 1.25 1.18 1.14 1.10 1.12 1.21 1.31 1.41 1.48 1.60 1.74 1.83 1.95 2.08 2.14 2.20
2.02 1.90 1.82 1.82 1.76 1.81 1.84 1.81 1.89 2.05 2.16 2.10 1.91 1.67 1.43 1.35 1.45 1.61 1.75 1.82 1.74 1.37 1.30 1.32 1.24 1.22 1.13 1.11 1.34 1.46 1.57 1.70 1.84 1.90 1.97 2.04 2.15 2.25
1.90 1.77 1.68 1.57 1.57 1.44 1.58 1.72 1.76 1.87 1.93 1.87 1.78 1.51 1.36 1.32 1.57 1.86 1.87 1.79 1.54 1.31 1.40 1.54 1.40 1.35 1.24 1.31 1.51 1.45 1.56 1.70 1.86 1.93 1.99 2.02 2.07 2.19
1.71 1.68 1.61 1.55 1.48 1.46 1.50 1.58 1.48 1.44 1.45 1.37 1.37 1.37 1.37 1.40 1.64 1.93 1.95 1.92 1.68 1.47 1.46 1.66 1.49 1.41 1.32 1.35 1.53 1.44 1.47 1.60 1.77 1.92 2.04 2.04 2.06 2.14
1.46 1.49 1.53 1.47 1.57 1.70 1.64 1.59 1.40 1.25 1.28 1.37 1.44 1.46 1.55 1.58 1.69 2.07 2.26 2.32 2.07 1.66 1.44 1.46 1.35 1.34 1.39 1.43 1.50 1.56 1.51 1.58 1.72 1.84 1.92 2.01 2.10 2.15
1.37 1.40 1.55 1.50 1.62 1.74 1.60 1.57 1.47 1.26 1.19 1.19 1.19 1.21 1.20 1.28 1.52 1.77 2.23 2.60 2.26 1.85 1.39 1.44 1.45 1.56 1.88 1.56 1.45 1.48 1.51 1.64 1.75 1.77 1.79 1.88 1.99 1.97
1.35 1.31 1.34 1.59 1.68 1.69 1.57 1.42 1.43 1.39 1.24 1.15 1.13 1.09 1.09 1.14 1.22 1.34 1.68 2.36 2.59 2.00 1.31 1.78 2.01 1.72 1.96 1.71 1.51 1.56 1.65 1.77 1.85 1.85 1.86 1.88 1.94 2.01
1.28 1.19 1.26 1.53 1.53 1.50 1.43 1.45 1.57 1.49 1.29 1.28 1.24 1.19 1.13 1.10 1.10 1.19 1.33 1.56 1.88 1.92 1.52 2.00 2.58 2.16 2.26 1.97 1.65 1.67 1.75 1.93 2.14 2.20 2.12 2.16 2.10 2.11
1.28 1.39 1.43 1.42 1.36 1.34 1.42 1.46 1.42 1.39 1.48 1.54 1.39 1.20 1.08 1.06 1.09 1.19 1.27 1.36 1.49 1.53 1.55 1.71 2.16 2.26 2.52 2.46 1.98 1.74 1.90 2.07 2.32 2.56 2.46 2.25 2.05 2.02
1.39 1.45 1.41 1.33 1.28 1.29 1.36 1.38 1.32 1.37 1.54 1.61 1.47 1.24 1.13 1.17 1.25 1.34 1.49 1.54 1.70 1.63 1.54 1.57 1.77 2.20 2.46 2.16 2.16 2.04 2.01 2.41 2.58 2.74 2.61 2.35 2.09 1.91
1.49 1.35 1.26 1.22 1.21 1.18 1.18 1.20 1.25 1.37 1.49 1.44 1.46 1.42 1.35 1.34 1.38 1.46 1.69 1.84 1.91 1.69 1.56 1.52 1.57 1.74 2.00 2.11 2.19 2.03 2.06 2.27 2.49 2.68 2.54 2.42 2.28 2.09
1.55 1.40 1.25 1.15 1.10 1.06 1.09 1.14 1.17 1.27 1.39 1.50 1.53 1.52 1.52 1.50 1.50 1.52 1.74 1.95 1.94 1.71 1.57 1.50 1.60 1.82 1.90 1.90 2.02 2.10 2.12 2.28 2.38 2.36 2.14 2.24 2.31 2.07
1.50 1.38 1.23 1.16 1.11 1.06 1.07 1.10 1.13 1.14 1.29 1.50 1.61 1.63 1.64 1.61 1.61 1.68 1.78 1.88 1.83 1.66 1.49 1.41 1.61 2.12 2.27 1.79 1.52 1.76 2.13 2.24 2.16 2.12 1.98 2.00 2.22 2.07
1.31 1.28 1.23 1.17 1.16 1.17 1.18 1.20 1.20 1.20 1.30 1.44 1.53 1.60 1.70 1.78 1.78 1.75 1.78 1.83 1.79 1.60 1.42 1.29 1.41 1.91 2.48 2.23 1.85 1.69 1.78 2.03 2.19 2.28 2.05 1.89 1.96 1.95
1.18 1.16 1.15 1.18 1.22 1.26 1.28 1.30 1.34 1.39 1.43 1.57 1.60 1.62 1.71 1.85 1.83 1.71 1.69 1.66 1.62 1.54 1.44 1.23 1.17 1.44 1.84 2.09 1.98 1.62 1.64 1.79 2.00 2.40 2.38 2.28 2.08 1.86
1.15 1.15 1.15 1.16 1.24 1.31 1.35 1.39 1.45 1.46 1.49 1.60 1.66 1.68 1.73 1.84 1.85 1.70 1.60 1.60 1.51 1.43 1.36 1.20 1.11 1.27 1.62 2.03 1.84 1.47 1.45 1.51 1.59 1.72 2.00 2.41 2.91 2.94
1.18 1.18 1.17 1.21 1.28 1.36 1.42 1.44 1.49 1.49 1.52 1.64 1.70 1.68 1.69 1.70 1.60 1.58 1.55 1.54 1.55 1.47 1.42 1.41 1.33 1.36 1.46 1.56 1.62 1.47 1.36 1.35 1.37 1.49 1.74 1.79 1.86 2.07